• En España
  • Lista de países
  • Para 7 días
  • Temperatura del agua
  • Mapa Satelital
  • El tiempo en el mapa
  • Informadores
  • user-avatar
    Iniciar sesión

    Tiempo cada hora Kileshino

    Hoy, 22 Abril, Domingo

    Tiempo Temperatura Precipitaciones Viento Presión Humedad
    00:00 +3°C° 0 mm 6 mps 729 mmHg 78%
    01:00 +2°C° 0 mm 5 mps 730 mmHg 80%
    02:00 +2°C° 0 mm 5 mps 730 mmHg 82%
    03:00 +3°C° 0 mm 4 mps 730 mmHg 82%
    04:00 +1°C° 0 mm 4 mps 731 mmHg 83%
    05:00 +1°C° 0 mm 4 mps 731 mmHg 83%
    06:00 +1°C° 0,1 mm 4 mps 731 mmHg 80%
    07:00 +3°C° 0,1 mm 4 mps 732 mmHg 77%
    08:00 +3°C° 0,1 mm 4 mps 732 mmHg 74%
    09:00 +3°C° 0 mm 4 mps 732 mmHg 71%
    10:00 +3°C° 0 mm 4 mps 733 mmHg 68%
    11:00 +3°C° 0 mm 4 mps 733 mmHg 65%
    12:00 +4°C° 0 mm 4 mps 734 mmHg 63%
    13:00 +4°C° 0 mm 4 mps 735 mmHg 61%
    14:00 +4°C° 0 mm 4 mps 735 mmHg 59%
    15:00 +4°C° 0 mm 4 mps 736 mmHg 59%
    16:00 +3°C° 0 mm 4 mps 736 mmHg 59%
    17:00 +3°C° 0 mm 4 mps 736 mmHg 59%
    18:00 +1°C° 0 mm 4 mps 737 mmHg 61%
    19:00 +1°C° 0 mm 3 mps 738 mmHg 62%
    20:00 +1°C° 0 mm 3 mps 738 mmHg 64%
    21:00 0°C° 0 mm 3 mps 739 mmHg 66%
    22:00 -1°C° 0 mm 2 mps 739 mmHg 69%
    23:00 -1°C° 0 mm 2 mps 739 mmHg 71%

    Mañana, 23 Abril, Lunes

    Tiempo Temperatura Precipitaciones Viento Presión Humedad
    00:00 -2°C° 0 mm 2 mps 740 mmHg 74%
    01:00 -3°C° 0 mm 2 mps 740 mmHg 78%
    02:00 -3°C° 0 mm 2 mps 741 mmHg 81%
    03:00 -3°C° 0 mm 2 mps 741 mmHg 81%
    04:00 -3°C° 0 mm 2 mps 741 mmHg 81%
    05:00 -3°C° 0 mm 2 mps 742 mmHg 81%
    06:00 -2°C° 0 mm 2 mps 742 mmHg 71%
    07:00 +1°C° 0 mm 2 mps 742 mmHg 61%
    08:00 +1°C° 0 mm 3 mps 742 mmHg 50%
    09:00 +2°C° 0 mm 3 mps 742 mmHg 46%
    10:00 +4°C° 0 mm 2 mps 742 mmHg 41%
    11:00 +6°C° 0 mm 2 mps 742 mmHg 37%
    12:00 +6°C° 0 mm 2 mps 742 mmHg 36%
    13:00 +7°C° 0 mm 3 mps 742 mmHg 36%
    14:00 +7°C° 0 mm 3 mps 742 mmHg 35%
    15:00 +7°C° 0 mm 2 mps 742 mmHg 37%
    16:00 +7°C° 0 mm 2 mps 741 mmHg 39%
    17:00 +6°C° 0 mm 2 mps 741 mmHg 41%
    18:00 +5°C° 0 mm 2 mps 741 mmHg 48%
    19:00 +4°C° 0 mm 1 mps 742 mmHg 56%
    20:00 +2°C° 0 mm 1 mps 742 mmHg 63%
    21:00 +1°C° 0 mm 1 mps 742 mmHg 65%
    22:00 +1°C° 0 mm 1 mps 742 mmHg 67%
    23:00 0°C° 0 mm 0 mps 742 mmHg 68%

    Pasado mañana, 24 Abril, Martes

    Tiempo Temperatura Precipitaciones Viento Presión Humedad
    00:00 0°C° 0 mm 1 mps 742 mmHg 69%
    01:00 0°C° 0 mm 1 mps 742 mmHg 69%
    02:00 0°C° 0 mm 1 mps 742 mmHg 69%
    03:00 0°C° 0 mm 1 mps 741 mmHg 69%
    04:00 0°C° 0 mm 1 mps 741 mmHg 68%
    05:00 -2°C° 0 mm 2 mps 741 mmHg 68%
    06:00 +1°C° 0 mm 2 mps 741 mmHg 61%
    07:00 +4°C° 0 mm 2 mps 740 mmHg 53%
    08:00 +6°C° 0 mm 2 mps 740 mmHg 46%
    09:00 +7°C° 0 mm 3 mps 740 mmHg 44%
    10:00 +8°C° 0 mm 3 mps 740 mmHg 43%
    11:00 +9°C° 0 mm 3 mps 739 mmHg 41%
    12:00 +10°C° 0 mm 4 mps 739 mmHg 42%
    13:00 +10°C° 0 mm 4 mps 738 mmHg 43%
    14:00 +11°C° 0 mm 4 mps 738 mmHg 45%
    15:00 +10°C° 0,1 mm 4 mps 738 mmHg 51%
    16:00 +9°C° 0,1 mm 3 mps 737 mmHg 57%
    17:00 +9°C° 0,1 mm 3 mps 737 mmHg 63%
    18:00 +8°C° 0,3 mm 3 mps 737 mmHg 71%
    19:00 +7°C° 0,3 mm 3 mps 736 mmHg 79%
    20:00 +6°C° 0,3 mm 2 mps 736 mmHg 87%
    21:00 +6°C° 0,1 mm 2 mps 736 mmHg 90%
    22:00 +6°C° 0,1 mm 2 mps 736 mmHg 92%
    23:00 +6°C° 0,1 mm 2 mps 735 mmHg 95%

    25 Abril, Miércoles

    Tiempo Temperatura Precipitaciones Viento Presión Humedad
    00:00 +5°C° 0 mm 2 mps 735 mmHg 96%
    01:00 +5°C° 0 mm 2 mps 735 mmHg 97%
    02:00 +5°C° 0 mm 2 mps 734 mmHg 97%
    03:00 +5°C° 0,2 mm 2 mps 734 mmHg 97%
    04:00 +5°C° 0,2 mm 2 mps 734 mmHg 97%
    05:00 +5°C° 0,2 mm 2 mps 733 mmHg 97%
    06:00 +6°C° 0,3 mm 2 mps 733 mmHg 94%
    07:00 +5°C° 0,3 mm 3 mps 733 mmHg 90%
    08:00 +7°C° 0,3 mm 3 mps 732 mmHg 87%
    09:00 +7°C° 0,3 mm 3 mps 732 mmHg 87%
    10:00 +8°C° 0,3 mm 3 mps 732 mmHg 86%
    11:00 +8°C° 0,3 mm 3 mps 732 mmHg 86%
    12:00 +8°C° 0,1 mm 3 mps 733 mmHg 84%
    13:00 +9°C° 0,1 mm 3 mps 733 mmHg 82%
    14:00 +8°C° 0,1 mm 4 mps 733 mmHg 80%
    15:00 +8°C° 0,1 mm 4 mps 733 mmHg 79%
    16:00 +8°C° 0,1 mm 4 mps 734 mmHg 79%
    17:00 +8°C° 0,1 mm 4 mps 734 mmHg 79%
    18:00 +8°C° 0 mm 3 mps 734 mmHg 83%
    19:00 +6°C° 0 mm 2 mps 735 mmHg 88%
    20:00 +5°C° 0 mm 2 mps 735 mmHg 93%
    21:00 +5°C° 0 mm 2 mps 735 mmHg 93%
    22:00 +5°C° 0 mm 2 mps 735 mmHg 93%
    23:00 +4°C° 0 mm 2 mps 735 mmHg 94%

    26 Abril, Jueves

    Tiempo Temperatura Precipitaciones Viento Presión Humedad
    00:00 +5°C° 0 mm 2 mps 735 mmHg 93%
    01:00 +5°C° 0 mm 2 mps 734 mmHg 92%
    02:00 +5°C° 0 mm 2 mps 734 mmHg 90%
    03:00 +4°C° 0,6 mm 3 mps 733 mmHg 90%
    04:00 +5°C° 0,6 mm 4 mps 732 mmHg 90%
    05:00 +5°C° 0,6 mm 4 mps 731 mmHg 90%
    06:00 +5°C° 2,4 mm 4 mps 731 mmHg 91%
    07:00 +6°C° 2,4 mm 4 mps 730 mmHg 92%
    08:00 +7°C° 2,4 mm 3 mps 729 mmHg 93%
    09:00 +7°C° 0,3 mm 4 mps 730 mmHg 90%
    10:00 +10°C° 0,3 mm 4 mps 730 mmHg 86%
    11:00 +11°C° 0,3 mm 4 mps 730 mmHg 83%
    12:00 +12°C° 0,3 mm 5 mps 730 mmHg 78%
    13:00 +12°C° 0,3 mm 5 mps 730 mmHg 74%
    14:00 +11°C° 0,3 mm 6 mps 731 mmHg 69%
    15:00 +11°C° 0,2 mm 6 mps 731 mmHg 71%
    16:00 +10°C° 0,2 mm 5 mps 732 mmHg 73%
    17:00 +10°C° 0,2 mm 5 mps 733 mmHg 75%
    18:00 +9°C° 0,1 mm 5 mps 733 mmHg 79%
    19:00 +7°C° 0,1 mm 4 mps 734 mmHg 84%
    20:00 +6°C° 0,1 mm 4 mps 735 mmHg 88%
    21:00 +7°C° 0 mm 3 mps 736 mmHg 89%
    22:00 +5°C° 0 mm 3 mps 736 mmHg 91%
    23:00 +5°C° 0 mm 3 mps 737 mmHg 92%

    27 Abril, Viernes

    Tiempo Temperatura Precipitaciones Viento Presión Humedad
    00:00 +4°C° 0 mm 3 mps 737 mmHg 93%
    01:00 +4°C° 0 mm 3 mps 738 mmHg 94%
    02:00 +5°C° 0 mm 2 mps 738 mmHg 95%
    03:00 +4°C° 0 mm 2 mps 739 mmHg 96%
    04:00 +4°C° 0 mm 2 mps 739 mmHg 96%
    05:00 +4°C° 0 mm 2 mps 740 mmHg 96%
    06:00 +5°C° 0 mm 2 mps 740 mmHg 90%
    07:00 +7°C° 0 mm 2 mps 740 mmHg 85%
    08:00 +8°C° 0 mm 2 mps 741 mmHg 79%
    09:00 +9°C° 0 mm 2 mps 741 mmHg 72%
    10:00 +12°C° 0 mm 2 mps 741 mmHg 65%
    11:00 +13°C° 0 mm 2 mps 741 mmHg 58%
    12:00 +14°C° 0 mm 2 mps 741 mmHg 55%
    13:00 +14°C° 0 mm 2 mps 741 mmHg 53%
    14:00 +15°C° 0 mm 2 mps 742 mmHg 50%
    15:00 +14°C° 0,1 mm 2 mps 742 mmHg 54%
    16:00 +14°C° 0,1 mm 2 mps 742 mmHg 57%
    17:00 +13°C° 0,1 mm 2 mps 741 mmHg 61%
    18:00 +12°C° 0 mm 2 mps 742 mmHg 68%
    19:00 +9°C° 0 mm 2 mps 742 mmHg 76%
    20:00 +9°C° 0 mm 1 mps 742 mmHg 83%
    21:00 +8°C° 0 mm 1 mps 742 mmHg 86%
    22:00 +8°C° 0 mm 1 mps 742 mmHg 89%
    23:00 +7°C° 0 mm 1 mps 742 mmHg 91%
    Mostrar más